Location: Nandig?ma
(16.7717°N, 80.2860°E)
Time: 20:48:55
(UTC+00:00)

MOS 1-B Rocket - Pass Details

Date: 03 August 2024
Orbit: 891 x 1604 km, 99.0° (Epoch: 17 September)

Event Time Altitude Azimuth Distance (km) Brightness Sun altitude
Exits shadow 14:51:24 17° 181° (S) 2,237 5.6 -23.2°
Maximum altitude 14:56:06 63° 259° (W) 1,149 4.5 -24.2°
Drops below altitude 10° 15:02:52 10° 339° (NNW) 3,071 7.2 -25.6°
Sets 15:05:43 0° 343° (NNW) 4,140 7.9 -26.2°
